Wind_Speed
21 24 28 32 33 30 29 30 30 28 26 26 26 26 24 23 24 21 18 18 17 20 23 21 18 20 22 17 17 24 24 22 26 26 24 24 26 25 24 22 20 17 15 14 15 17 18 18 19 20 21 21 21 20 20 19 19 19 17 16 16 15 16 15 12 11 10 9 10 9 9 9 10 10 10 10 11 11 10 8 8 8 8 9 9 9
22 30 33 33 31 28 26 26 28 28 27 29 29 29 28 26 26 23 21 21 20 21 21 21 20 19 21 17 15 24 26 24 26 27 25 26 26 26 26 24 22 19 16 17 17 18 19 20 20 21 22 23 22 21 19 18 18 19 18 17 17 16 15 15 13 12 10 9 9 9 9 10 11 11 11 11 12 12 11 9 8 9 9 10 10 10
27 34 34 29 27 26 26 25 27 30 29 29 30 31 32 31 28 25 22 24 25 25 22 21 23 21 21 20 17 23 29 26 24 27 27 27 28 28 27 26 24 21 20 20 19 20 21 21 22 22 23 23 22 21 19 17 18 19 18 17 16 15 14 15 15 13 11 10 10 11 11 12 13 13 13 13 13 13 11 8 9 10 10 10 10 10
32 32 29 27 25 25 27 27 27 29 32 32 32 32 33 33 30 25 19 22 25 27 25 21 22 22 22 23 20 23 27 26 23 25 27 27 28 28 29 28 25 24 23 23 21 20 21 22 23 24 24 23 23 23 21 18 18 19 18 16 16 15 13 13 15 14 13 12 12 13 13 15 15 14 15 14 14 13 11 9 9 10 10 10 10 11
33 28 23 23 25 27 28 29 29 31 34 34 34 34 33 33 30 28 22 19 23 24 24 23 21 22 24 24 23 24 25 26 25 25 27 28 27 28 29 29 27 25 24 24 23 21 22 24 24 24 24 24 24 23 22 20 17 17 18 16 16 16 15 13 14 15 16 15 14 15 16 16 17 15 15 14 13 13 12 9 9 10 11 11 11 11
33 27 22 21 24 28 30 31 32 33 34 34 34 36 35 32 30 30 26 21 24 23 23 23 17 18 27 28 26 28 30 29 27 25 28 29 27 28 30 30 28 26 24 25 24 22 22 24 24 24 23 24 24 23 21 20 18 17 18 19 18 18 17 15 14 16 17 17 16 16 17 16 15 14 13 13 13 13 13 11 11 12 12 11 11 11
31 27 26 26 25 27 31 33 33 33 34 34 33 34 34 33 32 32 30 24 22 23 25 27 18 13 24 30 28 29 32 33 29 27 30 30 28 29 30 30 30 28 26 24 24 24 23 23 24 24 23 21 21 22 21 21 20 19 19 20 20 19 19 18 16 17 18 18 17 17 17 16 15 14 13 14 14 14 15 13 12 13 13 11 11 10
29 26 28 30 29 29 32 35 33 32 35 36 33 29 29 32 34 34 36 31 22 20 25 33 29 18 21 28 28 29 30 31 32 31 32 33 31 30 31 31 31 30 27 26 25 25 24 24 25 24 22 19 17 18 21 22 22 21 20 20 21 21 20 20 19 18 19 19 18 17 17 17 16 15 14 16 16 16 17 15 13 13 13 12 11 9
26 27 28 29 32 33 33 33 31 32 35 36 32 27 27 30 32 33 36 36 30 22 20 33 35 19 16 26 26 27 31 32 34 34 35 36 33 32 33 33 32 30 28 27 26 26 25 25 24 22 20 19 19 19 20 20 20 21 21 22 23 23 22 22 21 20 19 20 19 18 18 18 17 16 15 17 18 18 18 17 14 13 12 12 10 9
24 27 27 28 33 35 33 30 29 32 34 33 30 28 28 27 30 32 33 36 34 23 17 30 36 19 13 28 31 28 33 35 35 36 37 37 33 33 35 34 33 32 30 29 28 27 26 24 23 21 19 19 20 21 20 20 20 20 22 22 24 25 24 23 23 22 20 20 20 20 19 19 18 17 16 17 19 19 18 17 15 13 12 12 10 9
27 25 25 28 31 32 31 28 28 31 31 31 29 29 31 29 31 31 31 35 27 15 14 25 39 29 13 27 38 34 35 37 36 39 39 38 35 35 38 37 35 34 32 30 29 28 26 24 23 22 22 20 20 21 21 21 21 21 21 22 23 24 25 24 23 23 22 21 21 21 20 19 19 17 17 18 18 18 17 16 14 13 12 12 11 10
30 28 28 29 27 27 29 29 28 28 29 31 29 30 31 29 30 29 27 28 16 8 16 20 32 35 17 23 38 37 36 36 35 38 40 40 38 39 41 39 35 35 34 32 30 29 27 26 25 25 24 22 22 22 22 21 21 21 22 22 23 24 25 25 24 24 23 23 22 22 20 20 19 18 18 18 18 17 16 14 13 12 12 12 12 10
33 35 33 29 27 26 27 28 28 28 29 32 33 32 25 16 16 16 14 13 7 11 27 28 25 27 21 24 32 34 37 36 33 35 37 38 37 39 41 38 34 35 36 35 33 30 30 30 29 28 26 23 23 22 20 20 20 21 21 22 23 25 25 26 25 24 24 24 23 22 21 20 20 19 19 18 18 17 16 14 13 12 11 11 11 10
29 32 34 32 30 29 30 30 29 29 31 35 37 35 22 8 5 6 5 5 6 12 27 34 28 22 23 26 25 27 33 33 31 31 31 33 34 35 37 36 34 36 37 37 35 33 33 32 30 28 26 24 23 20 19 19 19 20 21 21 22 24 25 26 26 25 24 25 24 22 21 20 20 20 19 18 18 17 16 15 14 12 11 11 12 12
23 22 31 36 34 31 32 34 32 28 28 33 37 35 28 19 10 7 5 5 6 9 18 26 22 15 21 29 28 29 31 30 30 30 28 29 31 33 34 36 36 36 37 36 35 35 35 31 29 27 25 23 22 20 19 18 19 20 20 19 20 22 24 25 25 25 25 24 23 22 21 21 20 20 20 19 18 17 17 17 15 13 12 12 12 12
27 25 28 32 33 31 30 32 33 29 27 30 33 33 35 36 27 14 10 13 12 9 13 20 18 18 24 26 24 25 29 32 29 28 28 28 30 32 34 36 35 33 34 35 36 37 34 30 28 26 24 22 22 20 20 19 19 19 17 16 16 19 22 24 24 25 24 23 22 22 21 21 20 21 21 20 19 18 17 18 17 14 13 14 14 13
25 27 27 27 28 31 30 28 31 33 28 28 35 40 39 39 33 20 13 18 17 8 12 20 18 18 23 22 21 22 26 32 29 26 28 28 31 34 34 35 34 32 34 37 38 36 32 29 27 24 22 22 22 20 20 19 17 16 15 14 14 16 19 21 23 23 23 22 22 22 21 21 21 22 21 20 20 19 18 18 18 16 14 15 15 14
22 21 25 29 29 29 30 28 29 35 32 27 34 41 37 30 28 22 11 10 11 5 9 22 24 22 19 15 20 28 29 31 31 30 29 29 32 34 33 34 34 35 37 37 35 33 30 29 26 23 22 22 22 20 19 18 16 14 15 14 14 15 16 17 19 20 21 21 21 21 21 21 22 22 22 21 20 20 20 19 18 17 15 15 15 15
24 22 22 27 30 29 29 29 31 35 37 32 27 27 29 25 24 25 14 5 7 4 4 15 24 27 27 20 19 28 33 34 33 34 34 32 34 35 34 34 34 35 36 35 33 32 32 31 27 23 22 24 25 22 20 19 18 16 16 16 16 16 15 15 17 19 19 20 21 21 21 21 22 23 23 22 22 22 21 19 18 17 17 16 15 15
26 23 22 24 29 30 34 36 36 34 36 36 30 25 29 27 25 30 27 15 8 3 4 10 12 18 28 29 23 24 33 37 34 35 36 34 36 39 38 36 34 34 34 33 32 32 31 30 27 25 23 24 26 25 23 22 20 19 18 18 18 17 17 18 19 20 20 21 22 22 22 23 23 23 24 23 23 22 21 20 18 18 18 17 16 15
33 26 22 23 26 30 39 43 39 35 35 38 38 37 37 31 25 26 31 31 20 5 3 5 6 17 29 30 26 26 30 35 35 35 35 36 38 40 38 34 32 31 31 32 31 30 30 29 28 26 23 23 27 28 26 23 22 21 20 20 20 20 21 22 21 21 21 22 23 23 23 23 24 24 24 24 23 23 22 20 19 19 19 18 17 16
40 32 25 26 27 29 35 40 40 38 37 39 42 45 44 37 28 17 15 29 34 20 11 6 3 15 28 26 25 27 26 30 37 38 36 37 39 38 36 34 33 31 29 31 31 29 29 28 27 26 24 24 26 27 26 24 24 24 23 22 22 23 24 24 23 22 22 22 23 23 23 23 24 24 24 25 24 23 23 21 19 19 20 19 18 17
39 34 29 30 32 29 26 30 37 39 39 39 40 43 43 38 34 22 9 18 29 26 24 19 9 13 25 24 20 23 24 27 34 39 36 36 38 37 35 35 34 32 30 30 31 30 30 26 23 24 26 26 25 25 25 26 26 25 25 25 24 25 26 26 25 24 23 23 23 22 23 23 24 24 25 25 24 24 23 22 20 20 20 19 18 18
40 35 31 30 33 34 29 28 34 40 40 40 40 41 39 36 38 33 20 17 22 24 23 15 8 15 28 29 26 23 19 21 27 38 36 36 38 36 34 34 33 32 32 32 31 31 32 29 24 24 28 29 28 26 27 27 27 26 27 27 26 26 27 26 26 26 25 24 23 23 24 24 24 24 25 25 24 24 23 22 21 20 19 19 18 18
41 38 32 22 17 24 27 24 27 39 44 40 37 37 36 35 36 34 30 26 21 26 29 15 6 18 28 32 35 28 14 11 25 36 33 34 37 32 30 33 34 32 32 32 32 32 32 30 26 26 28 29 29 28 27 27 27 27 27 27 27 28 28 27 27 28 27 25 24 24 24 24 24 24 24 24 23 23 23 23 22 21 20 19 18 18
40 42 39 26 12 11 16 16 19 32 42 40 35 34 34 34 34 33 35 30 20 23 32 23 14 20 25 26 35 35 20 12 21 31 32 30 29 26 25 29 32 32 32 31 32 34 34 29 24 24 25 27 28 28 28 28 28 28 28 28 28 28 28 28 29 29 29 27 26 26 25 24 25 24 23 23 23 22 23 22 21 20 19 18 18 18
40 43 45 42 32 24 25 27 26 26 33 39 37 35 34 33 33 34 35 33 28 23 26 28 24 24 26 26 29 34 30 20 17 25 31 28 24 24 25 24 26 30 34 33 33 35 34 28 22 21 21 23 25 25 26 28 28 29 30 30 29 29 29 29 30 30 30 29 27 26 25 25 24 23 22 22 22 22 22 21 20 20 19 18 18 18
39 40 43 47 46 38 32 33 33 29 28 35 37 36 36 34 33 35 36 39 37 25 20 28 30 26 28 31 28 28 32 29 22 19 26 28 24 24 26 25 25 29 34 36 36 36 35 30 25 21 18 18 21 22 23 25 26 28 30 30 30 30 29 30 30 30 31 30 29 27 25 24 23 22 22 22 22 22 21 20 20 19 18 18 18 17
37 35 38 42 45 44 37 32 33 34 30 29 33 35 36 37 36 37 37 39 39 32 30 34 31 25 26 28 26 25 27 30 26 19 21 25 21 17 22 26 26 31 36 37 37 36 33 30 28 24 18 16 17 19 20 22 24 26 28 30 31 31 30 30 30 30 31 31 30 28 26 25 24 23 23 23 23 22 21 20 20 20 19 18 18 17
38 27 29 34 36 40 41 36 34 34 31 27 30 34 36 37 38 38 36 35 35 35 38 38 34 31 30 27 25 23 20 22 24 19 16 20 21 17 18 20 20 25 33 36 36 33 28 26 26 25 21 17 16 18 19 21 23 24 25 26 29 31 31 31 32 31 31 31 31 29 27 26 26 25 24 24 23 22 21 21 21 21 20 18 18 18
43 28 23 28 27 29 38 41 39 38 35 31 30 31 35 37 37 37 36 34 35 34 34 36 37 36 34 32 31 28 25 24 23 18 14 17 22 20 17 16 14 16 27 34 33 29 24 21 23 26 25 20 18 19 21 23 23 23 23 24 25 27 30 32 33 33 31 30 31 30 29 29 28 26 25 25 23 22 22 22 22 22 21 20 20 20
38 31 23 24 20 18 26 34 40 44 39 37 37 33 31 34 36 39 39 35 35 34 31 32 36 36 34 33 32 32 33 32 28 26 23 21 20 18 17 18 16 13 21 30 30 26 23 20 21 25 27 25 22 20 21 22 24 24 23 22 21 23 27 31 33 33 32 32 31 32 31 31 30 28 26 26 24 23 23 24 24 24 24 22 21 21
25 31 27 23 16 15 19 21 30 38 32 33 43 40 31 29 28 29 34 36 34 33 31 29 30 32 30 28 29 33 38 41 37 30 26 23 21 22 21 22 25 25 22 27 29 28 27 27 26 26 28 28 27 25 22 21 23 25 24 22 20 21 25 29 31 32 33 33 33 33 32 32 31 29 28 27 26 26 26 26 26 25 24 23 21 22
19 26 27 23 17 13 18 20 18 19 19 27 42 41 32 31 28 21 23 28 29 30 32 31 29 27 23 21 25 29 32 40 43 39 32 27 26 28 27 25 28 32 30 29 31 32 33 35 34 32 29 27 27 29 27 24 24 24 23 22 22 22 23 25 28 30 32 34 34 34 34 33 32 32 30 29 29 29 28 28 27 26 24 24 23 23
24 25 23 21 18 12 17 20 13 9 12 20 29 32 28 29 31 27 23 22 23 24 25 27 28 29 30 29 28 25 24 27 35 40 42 40 33 28 28 27 28 31 30 28 29 31 33 35 35 33 29 28 29 31 30 29 26 23 22 23 24 25 24 24 26 28 31 33 34 35 35 35 34 34 33 33 32 32 30 29 27 26 25 25 24 24
24 27 25 20 19 14 14 16 11 10 12 12 19 25 23 20 25 29 28 23 23 25 23 21 22 26 32 38 35 29 27 26 27 31 37 40 35 26 20 21 25 30 30 27 26 27 29 32 34 34 31 29 29 31 31 30 28 24 21 22 24 26 25 25 26 28 31 33 34 35 37 37 36 36 36 35 35 34 32 29 28 26 26 25 25 26
16 20 27 26 23 20 18 17 19 19 15 14 20 23 20 17 17 21 23 15 12 19 21 17 18 19 24 35 39 35 32 32 32 32 31 31 32 29 24 22 23 25 26 25 22 21 23 28 31 34 34 31 29 30 30 29 29 28 24 22 23 25 27 28 28 29 32 34 34 36 38 39 39 38 37 36 36 35 33 31 29 27 27 26 27 27
11 12 20 26 27 27 24 16 15 14 12 17 23 21 20 21 18 18 20 10 5 11 13 11 16 16 17 23 30 32 31 30 31 33 33 33 34 36 35 32 30 27 27 26 24 22 22 24 25 28 31 31 31 31 31 31 31 31 29 27 25 24 26 28 29 30 33 35 36 37 39 40 39 39 37 36 36 35 33 31 29 28 28 28 27 27
14 8 12 22 26 27 26 18 11 11 13 18 23 21 19 20 20 20 17 10 9 11 8 8 14 18 18 19 19 20 23 24 26 28 28 32 36 38 38 36 33 32 32 32 34 35 35 33 30 30 32 33 34 35 34 34 35 37 38 36 33 32 32 30 29 31 33 37 39 39 39 40 39 38 37 36 35 34 31 31 30 30 29 28 27 26
23 15 11 15 19 21 19 15 14 16 15 16 21 23 21 19 18 16 11 9 14 14 9 10 14 16 20 20 17 17 18 19 23 24 22 25 30 33 34 33 31 33 36 36 36 39 40 37 34 36 40 40 39 38 37 38 39 41 44 42 40 41 40 36 32 32 35 39 42 41 41 40 39 37 37 36 34 32 31 32 32 31 29 27 26 25
18 18 13 12 12 16 15 12 13 16 15 15 18 21 23 23 18 14 9 10 15 16 14 17 20 19 20 19 18 19 20 21 23 24 22 23 25 26 29 29 28 31 35 36 36 35 34 32 32 36 41 42 41 40 41 43 45 46 48 46 45 45 43 39 36 35 37 41 43 43 43 41 39 37 36 34 32 32 33 34 33 31 28 26 25 24
6 5 9 13 10 10 14 12 10 8 11 16 19 19 20 20 15 14 13 13 15 18 18 19 21 22 21 19 18 19 21 24 27 27 26 26 25 25 26 27 28 28 28 31 34 33 29 25 26 31 36 39 42 43 43 45 48 51 52 50 48 46 43 41 39 37 38 42 45 45 44 42 39 37 35 33 34 35 36 35 32 29 27 25 23 22
12 10 6 11 8 8 13 11 5 3 7 13 17 17 18 17 14 15 17 16 17 19 19 18 20 21 21 20 20 20 19 21 24 26 29 32 33 33 31 31 32 32 30 30 33 35 33 29 25 26 31 36 39 43 45 47 48 51 53 52 48 46 44 42 41 39 39 42 46 46 44 42 39 37 35 35 37 37 36 33 30 28 26 23 21 21
5 7 8 6 3 3 6 5 4 7 9 11 13 16 18 17 16 17 19 19 20 20 20 20 22 23 22 22 22 23 23 22 22 22 24 30 35 38 37 33 32 33 33 33 33 35 39 39 34 31 33 36 38 40 44 45 45 46 47 45 43 43 44 43 41 39 39 43 46 46 44 42 40 39 37 38 37 36 34 31 28 26 24 22 21 20
4 6 9 9 5 5 3 3 4 7 14 16 16 17 19 19 18 19 23 23 21 21 21 22 23 23 24 24 24 25 26 26 25 23 22 25 31 36 36 33 31 32 35 36 36 36 37 40 40 37 36 39 41 42 42 43 43 44 45 44 42 40 39 40 40 40 40 42 45 46 44 42 41 39 37 36 35 33 31 28 27 25 24 22 21 23
11 10 9 10 6 1 2 3 3 11 17 22 22 21 23 25 23 24 26 24 22 21 20 20 22 24 26 26 27 27 27 26 25 23 22 21 24 28 31 30 30 31 34 36 37 37 36 37 39 39 37 40 43 41 37 37 38 40 43 45 46 44 40 40 40 39 39 42 45 44 43 40 38 36 35 34 33 31 28 27 27 26 24 22 23 26
21 18 15 12 9 5 5 7 10 17 21 26 29 27 27 27 24 24 26 25 23 22 21 22 24 25 27 28 27 26 27 26 26 25 25 25 25 27 29 30 30 30 32 34 36 37 37 36 37 38 39 41 43 42 41 42 41 40 41 42 44 44 42 40 38 37 38 42 42 39 37 36 35 35 35 35 33 31 29 28 27 24 23 24 26 28
24 19 18 18 16 13 12 10 15 19 21 25 31 31 28 24 21 22 25 26 25 23 21 22 23 23 23 24 25 26 27 28 29 29 29 29 30 30 30 30 30 29 29 31 34 36 38 38 38 41 43 44 44 43 46 53 52 45 41 39 39 40 39 37 37 37 37 36 33 32 33 34 36 36 36 34 31 29 28 27 25 22 23 24 25 26
26 21 18 20 21 19 16 12 17 22 23 23 26 29 26 22 20 21 23 24 23 20 19 19 20 21 21 23 25 26 27 27 28 29 29 28 29 29 28 28 29 29 29 31 33 36 37 38 39 41 43 45 45 43 44 48 46 40 38 38 37 38 38 37 35 33 31 30 31 33 36 37 36 35 32 30 29 28 26 24 22 22 22 22 22 24
24 22 18 18 21 22 20 17 17 19 20 21 22 23 21 19 19 21 21 20 17 15 16 17 19 20 22 23 25 26 26 25 24 24 23 24 24 25 26 27 28 28 29 31 33 35 37 38 39 39 39 39 39 37 37 36 31 29 34 37 38 38 37 35 32 30 30 34 36 36 37 36 33 31 29 27 26 25 23 22 22 21 20 22 24 26
17 19 18 19 23 25 23 19 19 20 19 18 19 18 17 17 17 18 17 15 11 10 11 13 15 17 18 18 19 20 20 20 19 19 20 22 23 25 26 27 26 26 26 27 29 31 34 36 35 32 30 27 25 24 27 26 25 29 30 30 31 31 27 26 29 32 34 36 35 35 34 32 30 28 26 24 23 21 21 21 20 20 22 25 27 27
Wind_Direction
214 217 218 220 216 215 217 215 214 219 225 228 237 244 240 231 234 243 225 199 190 194 193 192 203 207 204 210 210 203 201 198 202 207 207 209 215 220 224 231 236 227 212 208 214 218 215 211 206 206 211 216 217 216 215 215 218 222 223 222 223 221 224 231 233 233 235 236 237 238 234 231 229 226 225 228 233 237 239 232 224 230 242 251 259 270
218 220 220 221 220 217 218 219 217 218 221 228 238 247 250 243 236 236 226 210 204 204 203 202 203 206 213 219 205 197 197 195 199 206 208 209 215 222 224 232 240 235 223 218 217 216 217 216 213 210 213 218 222 221 219 218 219 224 226 226 228 226 227 232 237 240 241 238 237 237 232 227 227 225 225 229 232 236 237 232 232 237 243 250 256 264
222 224 223 221 223 222 218 219 220 219 220 226 235 245 254 254 252 249 231 212 206 203 201 203 204 208 219 220 203 198 201 201 205 209 209 209 214 221 226 231 237 236 230 227 223 217 219 221 218 216 217 221 225 225 224 222 219 223 227 228 230 230 227 229 235 240 243 239 232 233 229 224 224 224 224 226 229 234 234 223 228 239 243 249 256 263
222 227 227 221 222 225 223 221 221 222 223 225 232 241 250 252 257 261 238 205 203 201 192 195 205 210 219 220 210 204 206 206 206 209 214 215 217 223 227 231 236 237 232 231 230 223 222 226 226 223 222 223 226 227 226 224 220 222 228 230 231 235 231 226 231 237 240 238 230 228 227 223 223 224 224 225 226 233 232 218 224 237 244 250 257 264
223 228 233 228 221 222 226 224 221 223 225 226 230 236 243 248 251 259 251 216 206 206 196 194 206 213 213 213 210 205 206 208 205 208 216 219 221 224 226 230 236 240 239 236 235 228 222 226 233 233 230 228 229 230 229 228 227 225 229 233 233 236 236 229 228 233 239 239 234 230 229 228 226 225 226 227 228 235 238 225 225 238 245 250 254 260
227 223 228 235 226 219 223 226 223 223 228 229 229 231 235 242 247 254 259 234 206 202 199 197 203 212 210 210 212 207 206 211 210 208 214 219 220 221 223 226 232 237 240 242 241 235 227 227 234 239 238 234 232 234 234 233 234 230 230 234 235 236 237 235 228 229 238 242 239 237 237 239 239 236 232 232 233 236 242 237 230 238 244 247 251 256
233 226 223 229 229 221 220 225 225 222 228 231 228 229 232 239 246 249 255 247 216 202 201 202 203 203 202 208 215 213 213 217 214 207 209 215 217 219 222 226 231 235 237 242 243 240 236 233 234 238 239 237 233 234 236 236 236 232 230 232 236 238 238 238 233 229 236 242 242 240 241 242 243 242 236 234 235 235 242 243 235 238 243 245 250 255
230 227 224 227 229 226 221 223 225 221 225 229 228 228 230 236 244 247 252 258 246 221 205 200 203 201 195 203 214 217 216 215 213 208 208 211 214 219 224 227 230 234 238 242 243 242 241 238 237 239 240 240 237 234 233 234 237 237 236 234 235 238 238 238 236 232 234 240 243 241 241 241 241 243 238 233 234 236 242 244 238 237 240 243 246 250
226 225 224 225 228 228 225 224 224 222 225 229 228 229 229 233 240 245 251 259 261 249 212 194 198 203 203 205 209 213 211 210 211 208 207 211 215 218 223 227 229 232 237 242 245 245 244 241 243 244 245 246 245 239 235 233 236 239 240 237 235 235 236 235 235 235 234 237 240 239 238 241 242 242 238 235 234 235 240 243 238 234 235 240 240 237
229 228 224 223 228 229 228 227 224 223 227 229 229 230 233 236 240 242 246 253 259 255 220 194 192 194 212 209 205 204 207 212 214 210 209 212 214 215 219 223 227 230 234 238 244 247 245 244 248 249 248 249 249 246 243 237 233 235 236 235 233 233 234 234 234 235 234 234 236 237 237 238 242 242 237 235 235 236 239 241 239 233 231 239 237 225
229 229 227 226 228 228 228 229 225 224 226 227 229 230 236 242 243 245 245 245 252 253 232 211 198 197 207 206 203 204 210 216 217 212 212 213 212 214 216 218 223 228 232 235 240 244 246 245 248 249 248 249 250 248 246 241 233 231 232 231 230 231 232 232 232 232 234 234 235 237 238 238 241 241 238 237 237 237 239 240 240 236 229 233 235 224
231 230 228 227 228 226 228 230 225 223 225 225 226 227 233 243 245 249 247 237 238 241 244 234 206 202 205 204 206 212 216 218 217 215 217 219 220 219 218 220 222 225 229 234 237 241 242 243 245 247 247 250 248 243 239 238 234 230 229 228 227 227 228 229 230 229 231 234 236 237 236 236 238 238 237 237 237 238 239 239 238 234 228 227 232 228
232 233 231 227 226 224 226 229 223 219 220 221 225 225 225 231 238 246 248 232 228 238 242 244 229 218 220 217 214 215 214 215 219 222 224 225 227 224 222 224 224 221 224 229 235 240 241 241 244 244 242 243 242 238 233 231 230 228 228 228 227 226 226 228 229 228 228 232 236 237 235 235 235 236 236 235 235 234 234 235 232 228 226 225 230 232
232 233 233 231 230 225 221 221 220 219 217 216 221 223 219 206 208 228 246 239 235 238 236 238 240 238 236 239 240 231 224 222 223 225 227 227 229 229 227 225 223 219 220 225 231 239 242 241 244 243 238 236 236 235 231 228 228 227 227 227 227 227 226 228 230 229 228 230 235 237 236 235 234 234 234 232 232 230 229 230 229 225 225 225 228 232
227 227 226 226 227 225 220 216 217 221 219 215 217 221 223 221 216 215 221 227 237 249 240 234 234 234 234 243 253 252 244 233 222 219 221 225 227 229 227 222 220 220 222 227 232 236 239 241 245 246 242 239 237 234 230 227 227 228 228 227 228 229 228 229 231 230 230 230 233 236 235 234 233 232 232 231 229 227 226 228 228 224 224 227 230 232
225 230 227 225 222 221 220 216 213 218 221 216 216 221 226 226 227 227 226 233 241 250 249 240 236 232 234 240 243 245 238 223 211 207 212 219 220 221 222 219 221 225 225 227 230 232 236 241 245 247 244 241 238 233 226 225 226 227 228 227 227 229 231 231 232 233 233 232 231 233 234 232 231 231 229 227 226 224 223 225 227 226 223 229 235 237
220 230 229 227 225 219 216 215 211 213 217 213 214 221 223 222 226 231 236 243 245 242 242 245 246 239 237 236 233 239 230 212 203 203 208 215 216 215 216 217 224 229 223 220 226 232 237 239 240 241 238 234 232 227 221 221 224 224 223 222 224 227 230 231 233 234 234 232 231 230 231 230 228 229 227 224 224 224 223 223 226 227 225 228 235 241
222 233 229 223 224 219 213 216 216 215 215 208 210 220 222 221 227 233 238 239 237 243 236 237 243 245 242 233 233 241 232 211 207 209 207 208 212 214 216 216 223 227 221 221 229 235 235 233 234 235 231 228 227 223 219 220 221 219 217 216 217 221 227 231 232 233 233 231 230 229 229 228 226 227 226 224 224 226 226 225 225 227 229 231 235 241
227 241 239 222 221 219 210 213 216 215 217 214 212 216 217 217 225 230 232 219 216 240 243 231 237 241 243 243 243 239 225 209 205 205 204 207 210 212 215 217 220 224 225 228 231 231 230 229 230 230 228 227 228 224 219 218 217 215 214 212 212 212 218 227 230 231 231 228 228 227 227 227 226 226 225 223 223 226 228 228 227 229 233 236 238 241
221 235 244 229 222 216 207 209 212 209 211 216 221 222 218 219 220 220 224 225 214 216 231 233 241 242 240 242 246 235 213 202 201 201 202 208 210 211 214 218 220 224 230 232 227 223 222 223 222 223 224 224 227 225 219 214 214 213 210 210 210 206 208 215 220 222 223 224 225 225 225 225 225 225 225 224 224 227 230 231 231 233 236 241 243 244
220 229 243 238 229 214 204 205 207 204 203 208 217 224 226 229 228 219 220 222 222 220 200 209 235 241 239 239 243 237 216 207 212 215 210 209 212 213 212 215 222 227 229 227 221 217 216 215 216 220 223 223 226 226 221 216 214 211 209 209 208 205 205 209 213 215 216 218 222 224 223 223 223 224 224 225 226 229 232 234 235 236 239 244 248 250
220 226 236 241 239 227 213 208 207 206 205 205 211 219 223 228 230 226 215 214 216 220 222 213 225 234 233 236 238 238 236 233 231 228 217 208 210 212 210 215 224 226 223 219 218 220 217 212 211 217 223 225 227 226 220 217 217 214 211 210 207 206 206 208 211 215 215 215 219 222 223 222 223 224 225 226 228 230 234 237 238 240 242 247 252 256
218 224 229 236 241 239 229 217 211 208 209 210 212 218 223 225 226 228 221 205 208 217 229 235 251 236 228 231 234 235 250 257 237 220 210 205 209 213 215 221 223 218 216 217 220 226 226 219 213 216 222 225 227 226 220 217 218 218 216 213 209 208 207 207 211 215 217 218 220 222 223 222 222 224 225 227 230 232 235 239 242 243 246 249 254 260
211 219 222 227 237 243 241 233 219 207 205 209 212 217 224 227 225 228 236 228 215 218 227 233 249 237 228 230 236 243 269 277 235 211 204 203 205 209 215 221 221 217 218 222 223 228 232 229 222 218 221 225 225 224 223 220 218 219 219 216 214 212 209 207 210 214 217 220 222 223 224 223 222 223 225 227 230 233 236 240 244 247 250 253 256 260
204 211 215 214 230 243 245 245 223 202 198 203 208 211 218 226 228 228 237 241 229 221 223 222 222 229 227 230 237 245 269 265 221 209 204 202 201 206 215 221 222 220 219 221 225 232 232 225 219 218 221 225 227 226 227 225 221 221 221 219 218 216 212 209 211 215 217 220 222 225 226 226 224 224 225 226 229 233 236 239 243 248 252 255 258 261
208 207 210 208 205 216 227 238 222 199 194 200 205 208 212 220 224 226 231 236 234 225 226 226 225 226 225 228 239 244 243 226 212 208 206 206 208 216 224 224 225 224 222 222 227 231 226 213 208 214 219 224 228 228 227 227 225 223 223 222 222 219 215 212 212 215 217 219 223 227 229 228 227 227 227 227 229 233 237 239 242 246 249 254 259 261
210 207 209 213 215 216 217 226 229 211 196 197 201 205 210 216 220 222 226 231 233 231 232 234 234 232 226 221 230 241 239 232 228 218 210 209 216 222 222 221 220 219 220 224 224 219 211 201 198 206 212 217 222 223 224 227 228 227 225 224 223 222 219 214 215 217 217 219 222 226 230 229 229 229 229 229 231 233 237 240 242 244 246 249 253 256
209 208 210 214 217 221 222 223 229 227 210 200 200 204 209 213 219 222 223 229 234 235 235 237 236 234 232 224 221 231 234 232 236 228 210 210 218 222 219 220 221 217 218 221 218 209 202 202 204 203 204 210 214 217 222 227 232 234 232 229 226 226 224 218 217 219 219 219 222 225 228 229 230 230 229 230 231 233 235 238 240 241 241 242 245 249
213 210 211 213 216 220 223 221 222 229 230 214 204 206 209 210 216 223 226 227 231 234 239 242 241 236 236 236 231 232 233 228 226 219 209 215 225 224 219 223 226 224 222 219 212 205 203 208 211 209 209 212 213 214 217 221 228 235 236 234 231 230 229 224 221 222 222 219 221 224 226 227 229 229 228 227 228 229 231 232 235 239 240 240 243 248
220 219 212 210 212 216 221 225 223 229 239 232 215 211 213 212 213 220 229 231 230 235 240 245 249 245 240 242 243 243 241 232 224 214 210 224 234 233 225 222 220 219 219 214 206 201 204 212 214 213 215 222 223 218 214 214 221 228 232 234 233 232 232 230 225 224 226 222 220 223 225 225 227 228 227 226 225 225 227 229 233 238 241 242 245 250
218 222 219 214 217 216 216 223 229 233 241 243 232 220 215 215 214 215 224 232 235 237 237 238 244 248 244 243 247 251 252 248 237 225 219 228 235 240 237 224 209 202 206 206 201 200 206 212 215 214 216 225 231 226 219 215 216 222 227 229 230 230 231 232 229 227 228 226 221 221 224 225 226 227 227 226 226 226 227 229 233 237 241 244 247 252
214 212 217 218 231 235 217 217 225 230 238 247 245 237 225 216 212 213 216 222 230 237 239 236 237 242 244 245 246 248 250 250 246 240 243 245 238 238 241 237 236 221 201 199 203 208 215 221 223 221 221 226 231 229 225 221 217 219 223 224 225 224 226 231 232 229 228 228 224 220 222 225 226 227 228 228 227 227 228 231 233 237 241 245 250 255
224 208 209 214 231 248 230 221 221 219 227 243 241 239 241 231 221 220 218 214 217 228 237 241 241 240 242 244 242 240 243 246 247 247 253 256 242 235 241 247 252 252 231 216 221 231 238 243 242 235 229 229 231 232 233 233 226 222 222 222 221 223 225 228 231 231 228 227 225 221 220 223 225 227 229 228 228 228 229 231 234 237 242 247 252 257
252 209 201 205 217 235 230 233 240 223 217 233 234 235 243 243 239 242 233 218 215 223 227 232 240 238 233 235 236 232 234 240 244 246 251 257 252 245 249 249 245 246 243 237 240 244 247 250 252 247 240 239 237 235 236 241 237 228 225 224 222 224 226 226 228 231 229 227 225 222 220 221 223 226 228 228 229 231 231 233 235 238 243 247 252 258
259 210 190 195 204 219 225 228 252 262 231 224 223 226 237 243 244 251 253 240 234 238 234 231 237 237 233 235 235 226 221 230 238 239 242 249 252 249 252 253 242 235 235 236 242 248 249 250 247 240 240 248 245 235 235 239 237 229 228 230 229 228 230 230 228 227 228 228 225 222 220 220 220 223 226 228 230 232 233 235 236 238 242 247 252 259
260 217 201 204 208 213 215 216 230 257 253 228 209 211 221 233 237 242 251 254 251 256 257 243 229 227 232 239 239 230 223 223 226 227 230 238 244 240 241 251 243 235 236 240 246 249 247 243 237 234 239 246 240 231 233 237 233 231 235 237 234 231 232 233 230 226 226 228 226 222 220 219 220 221 224 226 229 232 234 235 236 238 242 247 253 259
267 227 214 212 214 215 212 221 241 253 261 245 223 216 219 229 231 229 235 244 247 253 256 236 209 204 217 230 236 236 231 226 227 229 226 228 236 238 242 250 247 240 242 249 257 257 243 236 239 242 240 236 231 230 234 235 232 233 239 241 238 235 233 232 231 228 225 226 226 224 221 220 221 222 223 225 228 230 233 234 236 238 243 248 253 260
247 242 229 215 210 212 211 220 246 254 247 233 227 221 223 236 243 231 223 217 209 237 242 219 206 205 206 215 224 229 228 222 222 230 232 230 234 242 249 252 251 249 246 246 250 254 249 244 245 243 236 232 236 240 241 239 237 237 241 244 243 243 242 238 234 230 227 226 226 225 223 222 222 222 222 224 226 229 232 234 236 239 244 249 254 258
233 261 244 213 199 199 204 212 227 234 231 226 223 217 216 229 238 230 222 223 226 230 227 205 205 209 211 211 209 213 218 216 215 222 229 230 235 244 249 247 246 250 252 249 246 248 253 256 253 248 244 244 244 244 245 247 247 247 248 248 247 249 253 251 241 232 228 227 226 227 226 224 223 223 223 224 227 230 232 234 236 240 244 249 253 255
242 253 249 220 201 192 199 218 230 230 226 216 214 217 220 227 232 225 211 210 222 227 226 225 223 218 216 217 209 204 207 212 217 222 224 223 228 236 241 239 236 240 247 249 246 244 249 255 255 251 251 251 248 246 247 250 251 252 253 252 251 251 254 256 250 236 229 228 228 228 228 227 225 223 224 226 228 231 232 234 237 241 244 247 249 252
241 242 248 250 226 200 207 238 243 232 222 210 209 215 221 225 224 214 196 191 209 222 230 236 242 242 237 235 229 224 224 227 229 228 222 218 220 223 228 232 233 236 242 244 241 237 241 248 253 252 252 252 251 250 251 251 251 253 254 253 254 255 256 257 254 242 230 228 229 229 229 228 226 224 225 227 229 230 232 234 238 240 241 242 245 252
341 291 252 259 256 214 217 240 251 233 213 211 211 208 212 218 210 194 189 186 199 217 226 233 242 248 250 252 248 242 240 242 245 243 237 233 233 229 228 233 238 239 241 239 238 238 238 243 251 256 255 254 253 252 251 249 248 251 251 250 251 255 256 254 252 245 234 228 228 229 229 228 227 226 226 227 228 230 233 235 236 235 236 241 247 252
358 3 296 258 259 236 223 223 242 249 196 197 205 204 204 208 199 187 188 190 200 212 217 225 237 244 248 254 257 257 256 251 250 250 247 247 248 247 244 245 247 248 247 243 240 240 242 245 249 251 251 252 255 254 251 249 250 251 249 248 247 249 250 248 248 247 238 229 227 229 229 228 228 227 226 227 229 232 233 233 232 231 234 242 247 248
348 355 325 293 323 316 244 219 233 241 217 202 209 212 206 198 192 196 202 204 210 215 219 226 236 243 248 253 256 260 262 258 253 249 246 246 248 250 252 253 251 250 250 249 247 245 247 250 253 251 248 249 252 252 250 252 255 251 245 243 244 244 244 244 245 247 240 230 227 228 227 227 228 227 228 229 231 232 230 227 225 229 238 244 247 255
322 340 317 299 330 14 355 309 284 227 220 225 222 207 196 188 189 204 214 215 217 221 225 231 238 244 249 252 256 261 263 261 259 258 254 248 245 248 254 260 260 253 249 250 252 252 252 255 259 262 262 259 253 245 236 234 240 246 248 249 248 246 244 243 244 246 240 230 226 227 226 226 226 227 228 228 227 225 222 221 226 235 244 249 259 272
279 298 289 277 281 120 130 281 203 161 182 208 209 193 188 192 196 205 215 220 224 228 234 242 248 253 256 258 261 263 262 261 262 264 263 258 251 251 257 266 270 264 256 252 253 256 260 263 264 265 267 267 262 254 241 231 231 237 245 252 252 250 247 245 244 242 235 228 226 225 224 224 225 224 222 220 217 215 215 222 231 236 241 253 267 275
263 274 267 264 269 263 262 247 189 156 163 189 201 199 195 195 196 202 213 224 232 238 247 256 258 259 259 259 261 261 261 265 270 271 270 268 265 264 267 271 274 271 264 259 257 259 265 269 268 263 263 266 267 267 268 267 260 246 239 243 248 246 242 240 237 228 221 221 222 220 219 220 219 216 213 210 209 212 219 227 232 236 248 265 272 272
257 268 268 265 264 268 268 234 181 156 152 176 197 204 199 192 193 203 215 229 238 245 252 255 256 258 259 259 261 263 267 274 278 278 277 275 273 274 275 276 274 271 268 265 262 261 265 269 269 267 264 264 267 269 269 271 271 259 240 233 235 234 229 226 223 215 212 215 215 210 208 209 207 206 206 206 210 218 224 228 233 245 263 274 274 272
250 260 269 268 263 262 256 219 173 153 146 159 185 198 198 197 202 208 217 228 234 239 246 250 255 261 264 266 269 272 277 282 284 283 281 278 276 275 276 276 273 269 267 266 264 262 263 264 267 270 269 268 270 271 266 265 266 256 237 227 225 221 215 211 209 208 207 204 199 195 196 196 197 200 204 209 216 222 224 229 242 258 268 269 269 272
243 250 257 257 253 251 244 224 194 171 152 147 161 177 184 189 197 204 212 221 227 235 247 256 262 267 270 275 279 282 285 287 288 288 285 280 277 275 273 272 270 267 264 264 263 263 263 264 268 272 270 267 268 267 263 260 250 227 215 216 215 211 208 204 199 196 192 188 186 187 190 192 196 200 205 212 219 224 232 244 258 265 264 262 265 269
234 239 239 236 241 243 236 222 209 200 184 159 152 159 166 171 183 197 207 218 233 249 259 266 273 276 278 280 283 286 290 291 291 291 290 285 281 277 271 264 259 257 258 262 264 264 264 266 269 266 256 251 251 251 251 245 220 200 199 204 203 201 198 192 186 182 179 178 179 183 188 192 197 202 209 217 224 233 246 257 262 262 259 260 263 267
Height
3130 3130 3128 3127 3128 3131 3134 3136 3138 3142 3144 3143 3142 3142 3143 3144 3142 3142 3144 3143 3145 3148 3149 3151 3154 3156 3157 3159 3161 3161 3162 3164 3165 3165 3166 3167 3167 3168 3169 3170 3171 3172 3173 3175 3176 3177 3178 3179 3180 3182 3183 3184 3185 3187 3188 3190 3191 3192 3193 3194 3196 3198 3199 3200 3201 3202 3203 3204 3205 3206 3206 3207 3208 3209 3209 3210 3210 3211 3212 3213 3214 3214 3215 3215 3215 3215
3127 3125 3123 3124 3128 3131 3134 3136 3138 3140 3141 3141 3141 3140 3140 3141 3140 3140 3142 3141 3141 3145 3148 3149 3151 3154 3155 3156 3158 3160 3161 3162 3164 3164 3165 3165 3166 3166 3168 3168 3169 3171 3172 3174 3175 3176 3177 3177 3179 3180 3181 3182 3183 3185 3187 3188 3190 3190 3192 3193 3195 3196 3198 3199 3200 3201 3202 3203 3204 3205 3206 3206 3207 3208 3208 3209 3210 3210 3211 3212 3213 3213 3214 3214 3214 3215
3122 3118 3120 3125 3129 3131 3133 3134 3136 3137 3138 3139 3139 3138 3137 3137 3138 3138 3139 3139 3138 3140 3144 3147 3149 3151 3153 3154 3156 3158 3160 3161 3162 3163 3163 3164 3164 3165 3166 3167 3168 3169 3171 3172 3173 3174 3175 3176 3177 3178 3179 3181 3181 3183 3185 3187 3188 3189 3190 3191 3193 3195 3197 3198 3199 3200 3201 3202 3203 3204 3205 3205 3206 3206 3207 3208 3208 3209 3210 3211 3212 3212 3213 3213 3213 3213
3116 3115 3120 3125 3128 3129 3131 3132 3134 3135 3136 3136 3136 3136 3135 3134 3135 3136 3137 3138 3135 3136 3140 3143 3146 3149 3150 3152 3154 3155 3157 3160 3161 3162 3162 3163 3163 3163 3164 3165 3166 3167 3168 3169 3171 3172 3173 3174 3175 3176 3177 3179 3180 3181 3183 3185 3186 3187 3189 3190 3191 3193 3195 3197 3198 3199 3200 3201 3202 3203 3203 3204 3204 3205 3206 3206 3207 3207 3208 3210 3211 3211 3211 3212 3212 3212
3113 3115 3120 3123 3125 3127 3128 3129 3131 3132 3132 3132 3133 3133 3133 3133 3134 3133 3136 3137 3136 3136 3137 3140 3144 3145 3147 3149 3151 3154 3156 3157 3158 3160 3161 3161 3161 3162 3163 3164 3164 3165 3166 3167 3168 3170 3171 3171 3172 3174 3175 3177 3178 3179 3181 3183 3185 3186 3187 3189 3190 3191 3192 3195 3196 3197 3198 3199 3200 3201 3201 3202 3202 3203 3204 3205 3206 3206 3207 3209 3210 3210 3210 3211 3211 3212
3111 3116 3119 3120 3121 3123 3124 3125 3126 3127 3128 3129 3129 3130 3130 3131 3132 3131 3133 3135 3135 3134 3134 3138 3141 3141 3142 3144 3147 3151 3153 3154 3155 3157 3158 3159 3159 3160 3161 3162 3163 3164 3165 3166 3166 3168 3169 3169 3170 3171 3172 3174 3175 3177 3179 3181 3183 3185 3186 3187 3188 3189 3190 3192 3195 3196 3196 3197 3198 3199 3199 3200 3201 3202 3203 3204 3205 3206 3206 3208 3209 3209 3209 3210 3210 3211
3110 3114 3116 3116 3117 3119 3120 3121 3122 3125 3126 3125 3125 3128 3129 3129 3130 3129 3129 3131 3131 3130 3130 3132 3136 3138 3139 3140 3142 3146 3148 3150 3152 3154 3155 3156 3157 3157 3158 3159 3160 3162 3163 3164 3164 3165 3166 3167 3167 3168 3169 3170 3172 3174 3176 3178 3180 3182 3184 3185 3186 3188 3189 3190 3192 3194 3194 3195 3196 3197 3198 3199 3200 3201 3202 3203 3204 3205 3205 3206 3207 3207 3208 3208 3209 3210
3107 3110 3112 3113 3114 3115 3115 3116 3119 3122 3123 3121 3123 3127 3128 3128 3128 3126 3126 3128 3129 3129 3127 3127 3130 3134 3135 3136 3138 3141 3143 3146 3149 3151 3152 3153 3154 3155 3156 3157 3158 3159 3161 3162 3162 3163 3164 3164 3165 3165 3166 3168 3170 3171 3173 3175 3177 3179 3181 3183 3184 3186 3187 3188 3190 3191 3193 3193 3194 3196 3197 3197 3198 3199 3200 3201 3202 3203 3203 3204 3205 3206 3206 3207 3208 3209
3105 3106 3107 3109 3110 3110 3110 3113 3117 3120 3119 3119 3123 3125 3126 3126 3126 3126 3125 3124 3127 3127 3124 3123 3125 3129 3131 3133 3135 3137 3139 3141 3144 3146 3149 3149 3151 3152 3153 3154 3155 3156 3158 3159 3160 3161 3162 3162 3163 3164 3165 3166 3168 3169 3170 3172 3174 3177 3179 3180 3181 3183 3185 3186 3187 3189 3191 3192 3193 3194 3195 3196 3197 3198 3199 3199 3200 3201 3202 3202 3203 3205 3206 3206 3207 3208
3102 3102 3104 3106 3105 3106 3108 3111 3114 3116 3116 3118 3122 3123 3124 3124 3124 3124 3123 3123 3124 3123 3120 3120 3121 3123 3126 3128 3132 3133 3134 3136 3138 3141 3144 3145 3147 3148 3150 3152 3153 3154 3155 3157 3158 3159 3160 3161 3162 3162 3163 3165 3166 3167 3168 3170 3171 3173 3175 3177 3178 3180 3182 3184 3185 3186 3188 3190 3191 3192 3193 3194 3195 3196 3197 3197 3198 3199 3200 3201 3202 3203 3205 3205 3206 3207
3098 3100 3102 3102 3102 3104 3107 3109 3111 3112 3115 3118 3120 3121 3121 3121 3121 3121 3120 3121 3120 3116 3116 3118 3117 3118 3120 3121 3124 3126 3127 3129 3132 3136 3139 3141 3143 3144 3146 3149 3150 3151 3152 3154 3156 3157 3158 3159 3160 3161 3161 3162 3163 3164 3165 3166 3168 3170 3172 3174 3175 3177 3179 3181 3182 3184 3185 3187 3188 3190 3191 3192 3193 3194 3195 3196 3196 3197 3198 3199 3200 3202 3203 3204 3205 3206
3095 3095 3096 3098 3100 3102 3104 3106 3107 3109 3113 3115 3116 3118 3119 3118 3118 3117 3116 3117 3115 3111 3113 3116 3116 3115 3114 3114 3117 3119 3121 3124 3128 3130 3133 3136 3138 3141 3142 3145 3147 3148 3149 3151 3153 3154 3156 3157 3158 3158 3159 3160 3161 3161 3162 3163 3165 3166 3168 3171 3173 3174 3176 3178 3179 3181 3183 3184 3186 3187 3189 3190 3191 3192 3193 3194 3195 3196 3197 3198 3199 3200 3202 3203 3203 3204
3091 3090 3091 3094 3097 3099 3101 3102 3104 3106 3108 3110 3112 3114 3115 3115 3116 3114 3112 3111 3110 3109 3110 3113 3115 3113 3110 3111 3113 3115 3117 3120 3122 3125 3127 3131 3134 3136 3138 3141 3143 3145 3146 3148 3149 3151 3153 3154 3155 3156 3156 3158 3158 3159 3160 3161 3162 3163 3165 3168 3170 3171 3173 3174 3176 3178 3180 3182 3183 3185 3187 3188 3189 3190 3191 3192 3194 3195 3195 3196 3197 3199 3200 3202 3202 3203
3087 3087 3089 3091 3092 3094 3096 3097 3099 3100 3103 3105 3107 3109 3109 3110 3113 3113 3110 3108 3107 3107 3108 3110 3111 3107 3106 3108 3110 3111 3113 3115 3117 3119 3121 3124 3128 3130 3133 3136 3138 3141 3143 3144 3146 3148 3150 3151 3152 3153 3154 3155 3156 3157 3158 3159 3160 3161 3162 3164 3166 3169 3170 3172 3173 3175 3177 3179 3181 3183 3184 3186 3187 3188 3189 3190 3192 3193 3194 3195 3196 3197 3199 3200 3201 3202
3083 3082 3083 3085 3086 3088 3090 3092 3095 3098 3100 3101 3103 3106 3105 3104 3107 3108 3107 3106 3105 3105 3106 3107 3106 3102 3102 3105 3107 3109 3110 3111 3113 3114 3116 3119 3123 3126 3129 3132 3134 3137 3139 3141 3143 3144 3146 3148 3149 3150 3151 3152 3153 3154 3155 3157 3158 3158 3159 3161 3164 3166 3167 3169 3170 3172 3174 3176 3178 3180 3182 3183 3185 3186 3187 3189 3190 3191 3192 3193 3194 3196 3197 3199 3200 3200
3079 3076 3078 3081 3082 3085 3087 3088 3093 3096 3096 3097 3101 3102 3099 3098 3101 3103 3102 3103 3104 3104 3103 3102 3100 3099 3101 3103 3105 3106 3105 3107 3109 3111 3114 3117 3120 3124 3126 3129 3131 3133 3136 3138 3140 3141 3143 3145 3146 3147 3148 3150 3151 3152 3153 3154 3155 3156 3157 3159 3161 3163 3165 3167 3168 3170 3172 3174 3176 3178 3179 3181 3182 3184 3185 3186 3188 3189 3190 3192 3193 3195 3196 3197 3198 3199
3075 3074 3077 3079 3080 3082 3084 3085 3088 3090 3089 3092 3095 3092 3091 3097 3100 3100 3100 3101 3103 3103 3100 3098 3097 3098 3100 3100 3102 3104 3103 3105 3107 3109 3112 3113 3117 3120 3123 3125 3127 3129 3132 3134 3136 3138 3140 3142 3143 3144 3145 3147 3148 3149 3150 3152 3153 3155 3156 3157 3159 3161 3163 3164 3166 3167 3169 3171 3173 3175 3177 3178 3180 3181 3183 3185 3186 3187 3188 3190 3191 3193 3194 3195 3196 3197
3071 3071 3073 3076 3075 3078 3081 3083 3084 3085 3085 3087 3087 3087 3092 3098 3098 3098 3099 3100 3101 3101 3097 3095 3095 3096 3096 3096 3098 3100 3101 3103 3105 3107 3109 3110 3113 3116 3119 3121 3123 3125 3128 3130 3133 3135 3137 3139 3140 3141 3143 3144 3146 3147 3148 3150 3152 3153 3154 3155 3157 3158 3160 3162 3164 3165 3167 3169 3171 3172 3174 3176 3178 3179 3181 3183 3184 3185 3186 3188 3190 3191 3192 3193 3194 3195
3070 3069 3068 3071 3072 3074 3078 3080 3079 3080 3083 3084 3085 3089 3093 3093 3093 3095 3097 3097 3098 3098 3095 3093 3092 3092 3092 3093 3094 3095 3096 3099 3101 3103 3105 3106 3108 3111 3114 3117 3120 3123 3125 3128 3130 3132 3133 3136 3137 3139 3140 3142 3143 3145 3147 3148 3150 3151 3152 3153 3155 3156 3158 3160 3161 3163 3165 3166 3168 3170 3172 3174 3176 3177 3179 3181 3182 3183 3184 3186 3188 3189 3190 3192 3193 3194
3068 3067 3064 3066 3068 3071 3072 3072 3071 3074 3080 3084 3086 3087 3088 3088 3089 3091 3092 3092 3094 3094 3093 3092 3090 3088 3088 3091 3092 3091 3092 3094 3096 3098 3100 3102 3104 3106 3110 3114 3117 3120 3123 3124 3126 3128 3130 3132 3134 3135 3137 3139 3141 3143 3144 3146 3147 3148 3150 3151 3153 3154 3156 3157 3158 3160 3162 3164 3166 3167 3169 3171 3173 3175 3177 3178 3180 3180 3182 3184 3186 3187 3188 3189 3191 3192
3064 3063 3061 3062 3065 3065 3062 3061 3065 3071 3075 3079 3081 3080 3080 3083 3085 3086 3087 3087 3089 3090 3090 3090 3087 3084 3086 3090 3091 3091 3092 3093 3093 3093 3095 3097 3099 3102 3105 3109 3113 3116 3119 3121 3123 3126 3127 3128 3130 3132 3134 3137 3138 3140 3142 3144 3145 3146 3147 3148 3150 3152 3153 3154 3156 3157 3159 3161 3163 3165 3167 3169 3171 3173 3174 3176 3177 3178 3180 3181 3183 3185 3186 3187 3188 3190
3058 3059 3060 3059 3058 3057 3057 3058 3063 3067 3069 3071 3073 3073 3074 3077 3081 3082 3081 3080 3083 3084 3084 3086 3084 3081 3084 3088 3089 3089 3091 3092 3091 3090 3092 3095 3097 3099 3102 3105 3109 3112 3115 3118 3120 3123 3124 3125 3127 3129 3131 3133 3135 3137 3139 3141 3142 3143 3144 3145 3147 3149 3150 3151 3153 3155 3157 3159 3161 3162 3164 3166 3168 3170 3172 3173 3175 3176 3177 3179 3181 3182 3184 3185 3186 3187
3055 3057 3057 3055 3053 3053 3056 3058 3058 3061 3065 3068 3068 3069 3071 3074 3076 3077 3076 3076 3078 3080 3081 3083 3080 3078 3083 3086 3086 3088 3088 3088 3088 3088 3091 3094 3096 3098 3100 3102 3105 3108 3111 3114 3117 3119 3122 3124 3125 3126 3128 3130 3132 3134 3136 3138 3139 3141 3141 3143 3145 3146 3147 3149 3151 3153 3155 3157 3158 3160 3162 3164 3166 3168 3169 3171 3172 3174 3175 3177 3178 3180 3181 3182 3183 3184
3051 3052 3052 3052 3052 3051 3053 3055 3055 3055 3060 3062 3063 3066 3069 3070 3071 3073 3075 3077 3077 3077 3079 3081 3077 3077 3081 3083 3083 3085 3086 3084 3083 3085 3088 3091 3094 3096 3098 3099 3101 3104 3107 3110 3114 3116 3119 3121 3123 3124 3125 3126 3129 3131 3133 3135 3137 3138 3139 3140 3141 3143 3144 3147 3149 3150 3152 3154 3156 3158 3159 3161 3163 3165 3167 3168 3170 3171 3173 3175 3176 3177 3178 3180 3181 3182
3043 3045 3047 3049 3051 3050 3048 3049 3050 3050 3052 3055 3058 3061 3065 3067 3070 3073 3075 3076 3074 3073 3075 3077 3074 3074 3079 3082 3080 3082 3084 3083 3082 3084 3087 3089 3092 3095 3096 3096 3098 3101 3105 3108 3111 3113 3115 3118 3119 3120 3122 3123 3126 3128 3130 3132 3134 3135 3136 3137 3139 3140 3142 3144 3146 3148 3149 3152 3154 3155 3157 3159 3161 3162 3164 3166 3168 3169 3171 3172 3174 3175 3176 3177 3178 3179
3036 3037 3040 3041 3042 3043 3041 3040 3042 3046 3048 3050 3054 3058 3061 3064 3067 3069 3070 3070 3069 3069 3071 3071 3070 3071 3076 3080 3079 3079 3082 3084 3084 3084 3085 3087 3089 3092 3094 3094 3095 3098 3102 3105 3107 3109 3112 3114 3116 3117 3119 3121 3123 3125 3127 3129 3131 3132 3133 3135 3136 3137 3139 3141 3143 3144 3147 3149 3151 3152 3154 3156 3158 3159 3162 3163 3165 3167 3168 3170 3171 3172 3173 3174 3175 3176
3031 3030 3031 3032 3033 3036 3036 3037 3040 3044 3046 3046 3049 3053 3057 3060 3063 3065 3065 3063 3063 3066 3067 3066 3067 3070 3073 3075 3076 3077 3079 3081 3083 3084 3084 3085 3087 3088 3091 3092 3093 3095 3098 3100 3102 3105 3108 3110 3112 3113 3116 3118 3120 3122 3124 3125 3127 3129 3130 3132 3133 3135 3136 3138 3140 3141 3144 3146 3148 3149 3151 3153 3155 3157 3159 3161 3162 3164 3165 3167 3168 3169 3170 3171 3172 3173
3025 3024 3024 3026 3030 3033 3036 3039 3040 3042 3043 3043 3045 3049 3052 3056 3059 3060 3059 3058 3060 3063 3062 3063 3066 3068 3069 3072 3074 3075 3076 3078 3081 3083 3083 3084 3085 3086 3087 3089 3091 3092 3094 3096 3099 3101 3103 3105 3108 3111 3113 3115 3117 3118 3120 3122 3124 3125 3127 3129 3131 3132 3133 3135 3137 3138 3140 3143 3145 3146 3148 3150 3152 3155 3157 3158 3160 3161 3162 3163 3164 3166 3167 3168 3169 3170
3019 3019 3021 3023 3026 3030 3034 3037 3037 3038 3040 3041 3042 3045 3048 3051 3054 3054 3054 3056 3060 3059 3057 3061 3065 3066 3067 3070 3072 3073 3075 3076 3080 3082 3082 3083 3083 3084 3085 3086 3088 3089 3091 3093 3096 3098 3100 3103 3106 3109 3111 3112 3114 3115 3117 3119 3120 3122 3124 3126 3127 3129 3130 3132 3134 3135 3137 3139 3142 3143 3145 3148 3150 3152 3154 3155 3157 3158 3159 3160 3161 3162 3163 3164 3166 3167
3014 3015 3018 3021 3023 3027 3031 3033 3034 3034 3036 3038 3039 3041 3044 3046 3048 3051 3052 3055 3057 3057 3057 3060 3062 3063 3065 3067 3068 3071 3074 3075 3077 3079 3081 3081 3081 3082 3084 3085 3085 3086 3088 3090 3094 3097 3100 3103 3105 3107 3108 3110 3111 3112 3114 3115 3117 3118 3120 3121 3123 3125 3127 3129 3131 3132 3133 3135 3138 3140 3143 3145 3147 3149 3150 3152 3153 3155 3156 3157 3158 3158 3159 3161 3162 3163
3010 3011 3015 3020 3021 3023 3026 3029 3031 3032 3032 3034 3035 3037 3040 3041 3044 3047 3050 3052 3054 3054 3056 3059 3058 3058 3062 3065 3066 3067 3070 3072 3074 3076 3078 3081 3080 3079 3081 3083 3085 3086 3088 3090 3094 3097 3100 3102 3104 3105 3106 3107 3109 3110 3111 3112 3113 3115 3116 3118 3119 3121 3123 3124 3127 3129 3130 3132 3135 3138 3140 3141 3143 3145 3147 3148 3150 3152 3153 3154 3154 3155 3156 3157 3159 3160
3007 3007 3011 3016 3017 3018 3022 3025 3027 3030 3032 3032 3030 3031 3034 3037 3040 3042 3044 3047 3049 3051 3053 3054 3054 3054 3059 3063 3065 3065 3065 3067 3071 3074 3076 3078 3080 3079 3079 3080 3083 3086 3088 3091 3093 3094 3096 3098 3101 3103 3104 3105 3107 3108 3109 3109 3110 3111 3112 3114 3115 3117 3118 3120 3122 3125 3127 3129 3131 3134 3136 3138 3140 3141 3143 3145 3146 3148 3149 3150 3151 3151 3152 3154 3155 3157
3004 3004 3006 3012 3014 3015 3019 3022 3024 3029 3030 3024 3021 3025 3031 3034 3036 3038 3039 3042 3045 3047 3049 3050 3050 3053 3057 3060 3062 3063 3063 3063 3066 3070 3073 3075 3078 3080 3080 3080 3081 3084 3086 3088 3089 3090 3091 3094 3096 3098 3100 3102 3103 3105 3106 3107 3107 3108 3109 3110 3111 3113 3114 3115 3117 3120 3123 3125 3127 3130 3131 3133 3136 3138 3139 3141 3142 3144 3145 3146 3147 3148 3149 3151 3152 3154
3002 3002 3003 3008 3012 3014 3018 3020 3022 3024 3022 3016 3018 3026 3029 3029 3032 3035 3037 3040 3043 3045 3046 3047 3049 3052 3054 3055 3056 3058 3060 3062 3063 3066 3069 3071 3074 3076 3078 3079 3081 3081 3083 3085 3086 3087 3088 3089 3091 3094 3096 3098 3099 3101 3103 3104 3104 3105 3106 3106 3107 3108 3110 3111 3113 3115 3118 3120 3123 3125 3127 3129 3131 3134 3135 3137 3139 3140 3141 3143 3144 3145 3147 3148 3149 3150
3002 3001 3001 3005 3010 3014 3017 3020 3021 3020 3017 3016 3021 3026 3027 3027 3029 3031 3033 3037 3040 3042 3043 3045 3047 3048 3048 3048 3050 3052 3055 3059 3061 3064 3066 3067 3069 3072 3074 3077 3079 3080 3081 3082 3083 3085 3086 3087 3088 3090 3092 3094 3096 3097 3099 3099 3101 3102 3102 3102 3103 3104 3105 3107 3109 3111 3113 3115 3118 3120 3122 3124 3127 3129 3131 3133 3135 3136 3137 3139 3141 3142 3143 3145 3146 3147
3000 2999 3000 3004 3009 3012 3015 3018 3018 3016 3015 3017 3020 3022 3025 3027 3028 3029 3031 3035 3036 3036 3038 3041 3042 3042 3043 3044 3046 3050 3052 3054 3057 3059 3062 3063 3065 3067 3070 3073 3075 3077 3078 3079 3080 3081 3083 3084 3085 3086 3089 3091 3092 3093 3094 3095 3097 3098 3098 3099 3099 3100 3101 3103 3104 3106 3108 3110 3113 3116 3117 3119 3122 3124 3127 3129 3131 3132 3134 3136 3138 3139 3140 3141 3143 3144
2997 2996 2998 3002 3006 3010 3013 3015 3015 3014 3015 3016 3017 3020 3023 3024 3025 3028 3031 3033 3031 3032 3035 3037 3037 3038 3039 3041 3044 3047 3049 3052 3055 3057 3060 3062 3062 3063 3066 3069 3071 3072 3074 3075 3077 3078 3080 3081 3083 3084 3085 3087 3088 3089 3090 3091 3093 3093 3094 3095 3095 3096 3097 3098 3099 3101 3103 3105 3108 3111 3112 3114 3117 3119 3123 3125 3127 3128 3131 3133 3134 3136 3138 3139 3140 3141
2995 2996 2998 3000 3003 3007 3012 3014 3015 3014 3013 3013 3016 3019 3021 3022 3024 3026 3029 3030 3029 3030 3032 3034 3035 3036 3038 3040 3041 3043 3046 3050 3053 3055 3056 3058 3059 3058 3060 3063 3066 3068 3070 3072 3073 3075 3076 3078 3080 3080 3081 3083 3083 3084 3086 3087 3088 3089 3090 3091 3092 3093 3093 3094 3095 3097 3099 3101 3103 3106 3108 3110 3112 3115 3118 3121 3123 3125 3128 3130 3132 3134 3135 3136 3137 3138
2994 2996 2998 2999 3000 3003 3008 3011 3012 3011 3011 3013 3017 3020 3021 3021 3023 3025 3028 3028 3028 3029 3030 3031 3033 3035 3037 3039 3040 3042 3044 3046 3048 3049 3050 3052 3054 3055 3055 3058 3061 3063 3065 3067 3069 3070 3072 3073 3075 3076 3077 3077 3077 3079 3081 3082 3083 3084 3084 3086 3087 3088 3089 3090 3091 3093 3095 3097 3099 3101 3104 3106 3108 3112 3114 3117 3119 3122 3125 3128 3129 3131 3132 3133 3134 3135
2993 2995 2997 2998 2998 3000 3004 3007 3009 3010 3010 3013 3016 3019 3019 3020 3022 3024 3026 3025 3025 3027 3027 3028 3030 3032 3034 3037 3039 3040 3042 3042 3043 3045 3047 3049 3051 3053 3054 3055 3056 3057 3058 3060 3062 3064 3066 3067 3068 3069 3070 3071 3072 3074 3075 3076 3077 3077 3078 3080 3082 3083 3085 3087 3088 3089 3090 3092 3094 3097 3099 3102 3105 3108 3110 3113 3117 3120 3123 3124 3125 3127 3129 3130 3131 3132
2990 2993 2995 2997 2997 2999 3002 3005 3007 3008 3008 3011 3015 3018 3018 3019 3021 3022 3023 3023 3023 3024 3024 3025 3028 3029 3031 3034 3036 3037 3038 3038 3039 3042 3045 3047 3050 3051 3052 3052 3053 3054 3055 3055 3056 3057 3059 3060 3061 3062 3063 3065 3067 3068 3069 3070 3071 3070 3072 3074 3076 3078 3081 3083 3084 3084 3085 3087 3090 3092 3095 3098 3101 3104 3107 3111 3115 3117 3118 3120 3121 3123 3125 3126 3127 3128
2989 2990 2994 2997 2997 2998 3001 3004 3006 3007 3007 3010 3014 3016 3016 3017 3018 3019 3019 3020 3021 3021 3022 3024 3026 3028 3029 3031 3033 3034 3034 3035 3038 3041 3043 3045 3047 3048 3048 3048 3049 3051 3052 3051 3052 3052 3052 3053 3055 3056 3058 3060 3062 3063 3064 3064 3065 3065 3067 3069 3071 3074 3077 3078 3078 3079 3080 3082 3085 3087 3091 3094 3098 3101 3105 3108 3111 3112 3114 3116 3118 3120 3122 3123 3124 3125
2992 2993 2995 2997 2997 2997 3000 3003 3005 3006 3007 3009 3012 3013 3014 3015 3016 3016 3016 3017 3018 3019 3021 3023 3025 3026 3026 3028 3029 3030 3031 3033 3036 3038 3040 3042 3043 3043 3043 3043 3044 3045 3046 3047 3048 3048 3049 3049 3050 3051 3052 3053 3055 3057 3058 3059 3059 3059 3062 3064 3067 3070 3071 3072 3073 3074 3075 3077 3080 3082 3086 3091 3094 3098 3101 3104 3107 3109 3111 3113 3115 3117 3119 3119 3120 3122
2995 2996 2997 2997 2996 2997 2999 3001 3003 3005 3007 3009 3011 3011 3012 3013 3013 3013 3013 3014 3015 3017 3019 3021 3023 3023 3025 3026 3027 3028 3030 3032 3033 3035 3036 3037 3038 3039 3038 3038 3039 3040 3041 3042 3043 3045 3046 3046 3047 3048 3048 3047 3046 3048 3050 3053 3055 3056 3058 3060 3062 3064 3065 3067 3068 3069 3070 3072 3074 3078 3082 3087 3090 3094 3098 3100 3103 3105 3107 3110 3112 3114 3115 3116 3117 3118
2996 2998 2998 2997 2997 2997 2998 2999 3001 3002 3005 3007 3008 3007 3008 3009 3009 3008 3009 3011 3014 3015 3017 3019 3021 3022 3024 3025 3026 3027 3029 3030 3031 3032 3032 3033 3034 3034 3033 3034 3035 3036 3037 3038 3039 3041 3042 3043 3044 3045 3045 3045 3044 3043 3043 3044 3047 3050 3053 3055 3057 3058 3060 3061 3062 3063 3064 3067 3070 3073 3078 3082 3086 3090 3094 3097 3099 3102 3105 3107 3109 3110 3111 3112 3113 3114
2996 2998 2998 2998 2997 2997 2998 3000 3002 3002 3001 3001 3001 3001 3003 3004 3004 3005 3008 3011 3013 3015 3017 3019 3020 3022 3023 3024 3025 3026 3026 3027 3028 3029 3029 3029 3029 3029 3029 3030 3031 3032 3033 3034 3035 3037 3038 3040 3041 3042 3042 3042 3043 3043 3044 3044 3044 3045 3047 3049 3051 3053 3054 3056 3057 3058 3060 3062 3065 3069 3074 3079 3084 3087 3090 3093 3096 3099 3102 3103 3105 3106 3107 3108 3109 3109
2995 2997 2997 2997 2998 2998 3000 3002 3003 3002 3000 2997 2996 2998 3000 3000 3002 3005 3009 3011 3013 3016 3018 3020 3020 3021 3021 3021 3022 3023 3023 3024 3025 3025 3025 3025 3025 3025 3026 3026 3027 3028 3029 3030 3032 3033 3034 3035 3037 3038 3039 3039 3038 3040 3042 3044 3044 3042 3040 3041 3043 3045 3048 3050 3051 3054 3055 3057 3061 3066 3072 3077 3080 3083 3086 3089 3092 3095 3097 3099 3101 3102 3103 3104 3104 3104
2994 2995 2995 2996 2997 2999 3002 3004 3003 3002 2999 2996 2994 2996 2998 3000 3003 3006 3010 3011 3013 3016 3018 3018 3018 3018 3019 3020 3020 3020 3020 3021 3021 3021 3021 3022 3022 3022 3022 3023 3024 3025 3025 3027 3029 3030 3030 3031 3031 3032 3034 3034 3033 3034 3036 3036 3036 3035 3033 3034 3036 3038 3041 3043 3045 3049 3053 3055 3059 3065 3069 3073 3076 3079 3083 3086 3089 3092 3094 3095 3097 3098 3099 3099 3100 3100
2993 2994 2995 2996 2998 3000 3003 3004 3002 2999 2997 2995 2994 2994 2997 3000 3004 3006 3008 3010 3012 3014 3015 3016 3016 3016 3017 3018 3017 3017 3018 3018 3018 3018 3018 3018 3019 3019 3019 3019 3020 3021 3022 3023 3025 3026 3026 3027 3026 3027 3028 3027 3027 3029 3029 3028 3029 3029 3028 3030 3033 3034 3035 3038 3041 3045 3050 3053 3057 3061 3065 3069 3073 3077 3081 3084 3086 3088 3090 3092 3094 3094 3095 3095 3095 3095
2993 2995 2997 2999 2999 3000 3002 3003 3000 2996 2995 2995 2994 2994 2996 2999 3002 3004 3006 3008 3010 3011 3012 3013 3014 3015 3015 3015 3014 3014 3015 3015 3015 3015 3015 3015 3016 3016 3016 3016 3017 3018 3018 3020 3021 3021 3022 3022 3022 3022 3023 3021 3022 3023 3021 3022 3028 3029 3025 3025 3030 3032 3034 3037 3039 3042 3046 3051 3055 3059 3063 3067 3072 3075 3078 3081 3083 3085 3087 3088 3089 3090 3090 3091 3091 3091
2993 2995 2997 2999 2999 3000 3001 3000 2997 2996 2997 2997 2996 2996 2997 2998 3000 3002 3004 3006 3007 3009 3010 3011 3012 3013 3013 3013 3012 3011 3011 3012 3012 3012 3013 3013 3013 3013 3013 3013 3013 3014 3015 3017 3018 3018 3019 3019 3018 3018 3017 3016 3017 3018 3017 3019 3026 3029 3025 3025 3029 3032 3035 3039 3041 3043 3046 3050 3054 3059 3063 3066 3070 3073 3075 3078 3079 3081 3083 3084 3085 3086 3087 3087 3087 3086